Stündliche Wetter Kytaihorod

Heute, 17 Januar, Sonntag

Zeit Temperatur Niederschläge Wind Luftdruck Luftfeuchtigkeit
00:00 -12°C° 0 mm 1 m/S 737 mmHg 73%
01:00 -12°C° 0 mm 1 m/S 737 mmHg 74%
02:00 -12°C° 0 mm 1 m/S 736 mmHg 75%
03:00 -12°C° 0 mm 1 m/S 736 mmHg 76%
04:00 -12°C° 0 mm 1 m/S 736 mmHg 76%
05:00 -12°C° 0 mm 1 m/S 736 mmHg 77%
06:00 -12°C° 0 mm 1 m/S 736 mmHg 77%
07:00 -13°C° 0 mm 1 m/S 736 mmHg 78%
08:00 -13°C° 0 mm 1 m/S 736 mmHg 78%
09:00 -12°C° 0 mm 1 m/S 736 mmHg 75%
10:00 -11°C° 0 mm 0 m/S 736 mmHg 73%
11:00 -11°C° 0 mm 0 m/S 737 mmHg 70%
12:00 -10°C° 0 mm 1 m/S 737 mmHg 70%
13:00 -9°C° 0 mm 1 m/S 736 mmHg 70%
14:00 -9°C° 0 mm 2 m/S 736 mmHg 71%
15:00 -9°C° 0 mm 2 m/S 736 mmHg 76%
16:00 -8°C° 0 mm 1 m/S 736 mmHg 81%
17:00 -8°C° 0 mm 1 m/S 736 mmHg 86%
18:00 -8°C° 0 mm 1 m/S 736 mmHg 87%
19:00 -10°C° 0 mm 2 m/S 737 mmHg 89%
20:00 -10°C° 0 mm 2 m/S 737 mmHg 90%
21:00 -10°C° 0.1 mm 2 m/S 737 mmHg 89%
22:00 -12°C° 0.1 mm 2 m/S 737 mmHg 88%
23:00 -13°C° 0.1 mm 3 m/S 737 mmHg 87%

Morgen, 18 Januar, Montag

Zeit Temperatur Niederschläge Wind Luftdruck Luftfeuchtigkeit
00:00 -14°C° 0 mm 3 m/S 737 mmHg 86%
01:00 -13°C° 0 mm 2 m/S 737 mmHg 86%
02:00 -14°C° 0 mm 2 m/S 738 mmHg 85%
03:00 -15°C° 0 mm 3 m/S 737 mmHg 84%
04:00 -15°C° 0 mm 3 m/S 737 mmHg 83%
05:00 -15°C° 0 mm 3 m/S 737 mmHg 82%
06:00 -15°C° 0 mm 3 m/S 738 mmHg 82%
07:00 -14°C° 0 mm 2 m/S 738 mmHg 82%
08:00 -14°C° 0 mm 2 m/S 738 mmHg 82%
09:00 -14°C° 0 mm 2 m/S 739 mmHg 79%
10:00 -14°C° 0 mm 2 m/S 739 mmHg 77%
11:00 -15°C° 0 mm 3 m/S 739 mmHg 74%
12:00 -14°C° 0 mm 3 m/S 739 mmHg 72%
13:00 -14°C° 0 mm 3 m/S 739 mmHg 71%
14:00 -14°C° 0 mm 3 m/S 739 mmHg 69%
15:00 -15°C° 0 mm 3 m/S 739 mmHg 71%
16:00 -15°C° 0 mm 3 m/S 739 mmHg 73%
17:00 -16°C° 0 mm 4 m/S 739 mmHg 74%
18:00 -17°C° 0 mm 4 m/S 739 mmHg 76%
19:00 -17°C° 0 mm 4 m/S 739 mmHg 77%
20:00 -17°C° 0 mm 4 m/S 739 mmHg 79%
21:00 -18°C° 0 mm 4 m/S 739 mmHg 79%
22:00 -18°C° 0 mm 4 m/S 740 mmHg 80%
23:00 -18°C° 0 mm 3 m/S 740 mmHg 81%

übermorgen, 19 Januar, Dienstag

Zeit Temperatur Niederschläge Wind Luftdruck Luftfeuchtigkeit
00:00 -18°C° 0 mm 3 m/S 740 mmHg 81%
01:00 -18°C° 0 mm 3 m/S 740 mmHg 82%
02:00 -18°C° 0 mm 3 m/S 740 mmHg 82%
03:00 -18°C° 0 mm 3 m/S 740 mmHg 82%
04:00 -18°C° 0 mm 3 m/S 740 mmHg 82%
05:00 -18°C° 0 mm 3 m/S 740 mmHg 82%
06:00 -18°C° 0 mm 3 m/S 740 mmHg 82%
07:00 -18°C° 0 mm 3 m/S 740 mmHg 82%
08:00 -18°C° 0 mm 3 m/S 740 mmHg 82%
09:00 -17°C° 0 mm 3 m/S 740 mmHg 77%
10:00 -16°C° 0 mm 3 m/S 740 mmHg 73%
11:00 -15°C° 0 mm 3 m/S 740 mmHg 68%
12:00 -14°C° 0 mm 3 m/S 740 mmHg 64%
13:00 -13°C° 0 mm 3 m/S 740 mmHg 61%
14:00 -10°C° 0 mm 2 m/S 740 mmHg 57%
15:00 -10°C° 0 mm 2 m/S 740 mmHg 60%
16:00 -12°C° 0 mm 2 m/S 740 mmHg 64%
17:00 -10°C° 0 mm 1 m/S 740 mmHg 67%
18:00 -10°C° 0 mm 1 m/S 740 mmHg 69%
19:00 -10°C° 0 mm 1 m/S 740 mmHg 70%
20:00 -11°C° 0 mm 1 m/S 740 mmHg 72%
21:00 -10°C° 0 mm 1 m/S 740 mmHg 73%
22:00 -10°C° 0 mm 1 m/S 740 mmHg 74%
23:00 -10°C° 0 mm 1 m/S 741 mmHg 75%

20 Januar, Mittwoch

Zeit Temperatur Niederschläge Wind Luftdruck Luftfeuchtigkeit
00:00 -10°C° 0 mm 1 m/S 741 mmHg 76%
01:00 -10°C° 0 mm 1 m/S 741 mmHg 76%
02:00 -12°C° 0 mm 2 m/S 741 mmHg 77%
03:00 -12°C° 0 mm 2 m/S 741 mmHg 77%
04:00 -12°C° 0 mm 2 m/S 740 mmHg 77%
05:00 -12°C° 0 mm 2 m/S 740 mmHg 77%
06:00 -13°C° 0 mm 3 m/S 740 mmHg 78%
07:00 -13°C° 0 mm 3 m/S 740 mmHg 80%
08:00 -13°C° 0 mm 3 m/S 740 mmHg 82%
09:00 -12°C° 0 mm 4 m/S 741 mmHg 78%
10:00 -10°C° 0 mm 4 m/S 741 mmHg 75%
11:00 -9°C° 0 mm 4 m/S 741 mmHg 72%
12:00 -9°C° 0 mm 4 m/S 741 mmHg 71%
13:00 -8°C° 0 mm 4 m/S 740 mmHg 70%
14:00 -7°C° 0 mm 4 m/S 740 mmHg 69%
15:00 -7°C° 0 mm 4 m/S 740 mmHg 72%
16:00 -7°C° 0 mm 4 m/S 740 mmHg 75%
17:00 -7°C° 0 mm 3 m/S 740 mmHg 78%
18:00 -7°C° 0 mm 3 m/S 740 mmHg 82%
19:00 -7°C° 0 mm 3 m/S 740 mmHg 85%
20:00 -7°C° 0 mm 3 m/S 740 mmHg 89%
21:00 -7°C° 0 mm 3 m/S 740 mmHg 90%
22:00 -7°C° 0 mm 3 m/S 740 mmHg 91%
23:00 -7°C° 0 mm 3 m/S 740 mmHg 92%

21 Januar, Donnerstag

Zeit Temperatur Niederschläge Wind Luftdruck Luftfeuchtigkeit
00:00 -7°C° 0 mm 3 m/S 740 mmHg 93%
01:00 -8°C° 0 mm 3 m/S 740 mmHg 94%
02:00 -8°C° 0 mm 3 m/S 740 mmHg 95%
03:00 -7°C° 0 mm 3 m/S 740 mmHg 95%
04:00 -7°C° 0 mm 3 m/S 740 mmHg 96%
05:00 -7°C° 0 mm 3 m/S 739 mmHg 96%
06:00 -7°C° 0 mm 3 m/S 740 mmHg 95%
07:00 -7°C° 0 mm 3 m/S 740 mmHg 95%
08:00 -7°C° 0 mm 3 m/S 740 mmHg 94%
09:00 -6°C° 0 mm 3 m/S 740 mmHg 90%
10:00 -4°C° 0 mm 4 m/S 740 mmHg 86%
11:00 -3°C° 0 mm 4 m/S 740 mmHg 82%
12:00 -3°C° 0 mm 4 m/S 740 mmHg 80%
13:00 -1°C° 0 mm 3 m/S 740 mmHg 79%
14:00 0°C° 0 mm 3 m/S 739 mmHg 77%
15:00 -1°C° 0 mm 3 m/S 739 mmHg 81%
16:00 -2°C° 0 mm 3 m/S 739 mmHg 85%
17:00 -4°C° 0 mm 3 m/S 739 mmHg 89%
18:00 -4°C° 0 mm 3 m/S 739 mmHg 90%
19:00 -4°C° 0 mm 3 m/S 739 mmHg 91%
20:00 -4°C° 0 mm 3 m/S 739 mmHg 92%
21:00 -4°C° 0 mm 3 m/S 739 mmHg 92%
22:00 -4°C° 0 mm 3 m/S 738 mmHg 92%
23:00 -4°C° 0 mm 3 m/S 738 mmHg 93%

22 Januar, Freitag

Zeit Temperatur Niederschläge Wind Luftdruck Luftfeuchtigkeit
00:00 -4°C° 0 mm 3 m/S 738 mmHg 92%
01:00 -4°C° 0 mm 3 m/S 738 mmHg 92%
02:00 -4°C° 0 mm 3 m/S 738 mmHg 91%
03:00 -4°C° 0 mm 3 m/S 737 mmHg 90%
04:00 -4°C° 0 mm 3 m/S 737 mmHg 90%
05:00 -4°C° 0 mm 3 m/S 737 mmHg 89%
06:00 -4°C° 0 mm 3 m/S 737 mmHg 89%
07:00 -4°C° 0 mm 3 m/S 737 mmHg 89%
08:00 -4°C° 0 mm 3 m/S 737 mmHg 89%
09:00 -2°C° 0 mm 3 m/S 737 mmHg 86%
10:00 -1°C° 0 mm 3 m/S 737 mmHg 82%
11:00 0°C° 0 mm 3 m/S 737 mmHg 79%
12:00 0°C° 0 mm 3 m/S 737 mmHg 77%
13:00 +1°C° 0 mm 3 m/S 736 mmHg 76%
14:00 +2°C° 0 mm 3 m/S 736 mmHg 74%
15:00 +1°C° 0 mm 3 m/S 735 mmHg 78%
16:00 0°C° 0 mm 3 m/S 735 mmHg 82%
17:00 -1°C° 0 mm 3 m/S 735 mmHg 86%
18:00 -1°C° 0 mm 3 m/S 735 mmHg 87%
19:00 -1°C° 0 mm 3 m/S 734 mmHg 87%
20:00 -2°C° 0 mm 3 m/S 734 mmHg 88%
21:00 -2°C° 0 mm 3 m/S 734 mmHg 89%
22:00 -2°C° 0 mm 3 m/S 733 mmHg 90%
23:00 -2°C° 0 mm 3 m/S 733 mmHg 90%
Mehr zeigen

Wir brauchen deine Erlaubnis

Meteoprog und unser Service Anbieter werden persönliche Daten aufbewahren, so wie Cookies, Geräte Bezeichnung oder ähnliche Technologien von deinem Gerät und Prozess, so wie Persönliche Daten Inhalte und Werbungen, genauso wie social Media und den Verkehr zu analysieren.

  • Aufbewahrung und/oder Zugang zu deiner Geräte Informationen.

    Cookies, Geräte Bezeichnung oder andere Informationen, können aufbewahrt oder Zugang zu deinem Gerät erhalten, für den Grund, der oben angegeben wird.

  • Personalisierte Werbung und Inhalte, Messungen, Einblick in das Publikum und Produkt Entwicklung.

    Werbungen und Inhalte können personalisiert werden, basierend auf ein Profil. Mehr Daten können besser personalisierte Werbungen und Inhalte hinzufügen. Werbung und Inhalte können gezeigt und gemessen werden. Einblicke über das Publikum, welche die Werbung gesehen haben und den Inhalt, können abgeleitet werden. So wie Daten können genutzt werden, um es zu verbessern oder die Benutzer Erfahrung zu verbessern das System und die Software.

Wenn du “Ich stimme zu” klickst, erlaubst du uns, die Cookies zu benutzen die Geräte Bezeichnung, den Web oder ähnliche Technologien zu benutzen. Deine Settings, können in deinem Gerät bei deinem Browser geändert werden.

Für den bestimmten Zweck, berechtigten Interessen beruhen darauf, mehr als auf den Inhalt. Du kannst mehr darüber in unseren Privaten und Cookie Politik lesen.